COSMOS 2528

Satellite information

Favourite Embed

Satellite Type and Status

PAYLOADIN ORBIT

Key statistics

Satellite COSMOS 2528 at a glance.

Uptime

2388

Days in orbit

Revolutions

≈ 14.0

Per day

Orbit

LEO

Low Earth Orbit

Inclination

67.1

Latest

Satellite identification and parameters

Extended collection of information and parameters for COSMOS 2528.

Object identification

Identified? True

Debris? False

Object name: COSMOS 2528

International designator: 2018-082A

Object number (NORAD): 43657

Object ID (CCSDS): 43657

Country: COMMONWEALTH OF INDEPENDENT STATES (CIS)

Current information (Y/N): Y

RCS size: LARGE

Orbital parameters

Period: 103.102 minutes

Inclination: 67.1498 deg

SMA: 7283.475 km

Apoapsis: 911.244 km

Periapsis: 899.435 km

RAAN: 340.2995 deg

Eccentricy: 0.0008107

Argument of periapsis: 267.3536 deg

Mean anomaly: 92.6621 deg

Mean motion: 13.96673357 rev/day

Mean motion (dot): -0.00000006 rev/day2

B* drag term: 0.000050161 1/REarth

Two-line elements (TLE)

Creation date: May 9, 2025, 2:46 a.m.

Reference frame: TEME

Reference center: EARTH

Epoch: May 8, 2025, 10:06 p.m. UTC

TLE line 0: 0 COSMOS 2528

TLE line 1: 1 43657U 18082A 25128.92119232 -.00000006 00000-0 50161-4 0 9995

TLE line 2: 2 43657 67.1498 340.2995 0008107 267.3536 92.6621 13.96673357333490

Live tracking on map

Real-time ground track for satellite COSMOS 2528.

In-orbit conjunctions

There are no conjunctions computed for COSMOS 2528, at the moment. Check back to stay up to date, as we update our databases every day.

Go to all conjunctions

Associated space launch

Lotos-S1 spacecraft is a part of the Liana constellation, designed for orbital electronic intelligence.

COSMOS 2528 was lifted into orbit during the mission ‘Soyuz 2.1B | Lotos-S1 (Kosmos 2528)’, on board a Soyuz 2.1b space rocket.

The launch took place on Oct. 25, 2018, 12:15 a.m. from 43/4 (43R).

For more information about the launch, click the button.

Launch to space Soyuz 2.1B | Lotos-S1 (Kosmos 2528)
Soyuz 2.1B | Lotos-S1 (Kosmos 2528)

Agency: N/A

Status: Launch Successful

Launch date: Oct. 25, 2018, 12:15 a.m. UTC

Rocket: Soyuz 2.1b

Launch pad: 43/4 (43R)

Location: Plesetsk Cosmodrome, Russian Federation

...

Latest news about this satellite

There are no fresh news available about this satellite. Check back as we update our databases every day.


Newsletter sign-up

Weekly statistics, charts and insights to help you stay on top of the space industry.